Regional Weather Roundup
Issued by NWS Bismarck, ND

Home | Current Version | Previous Version | Text Only | Print | Product List | Glossary On
Versions: 1 2 3 4 5 6 7 8 9 10 11 12 13 14 15 16 17 18 19 20 21 22 23 24 25 26 27 28 29 30 31 32 33 34 35 36 37 38 39 40 41 42 43 44 45 46 47 48 49 50
000
ASUS43 KBIS 281510
RWRBIS

NWR BROADCAST TEXT
NATIONAL WEATHER SERVICE BISMARCK ND
900 AM CST FRI NOV 28 2014

NOTE: "FAIR" INDICATES FEW OR NO CLOUDS BELOW 12,000 FEET WITH NO
SIGNIFICANT WEATHER AND/OR OBSTRUCTIONS TO VISIBILITY.


CITY           SKY/WX    TMP DP  RH WIND       PRES   REMARKS
WILLISTON      CLOUDY    15  11  83 E9        29.66F WCI   3
MINOT          LGT SNOW   8   3  80 E10       29.79F WCI  -6
MINOT AFB      FLURRIES   8   5  87 SE16      29.78F WCI  -9
BISMARCK       PTCLDY    11   8  88 E9        29.78F WCI  -2
DICKINSON      MOCLDY    17  14  88 E10       29.63R WCI   5
GARRISON         N/A     11   8  88 E13       29.76R WCI  -4
HETTINGER ARPT CLOUDY    27  23  85 SE6       29.65S
JAMESTOWN      CLOUDY     8   3  80 E13       29.85R WCI  -8
BEACH          FAIR      37  32  81 SW3       29.60S
CARRINGTON     FLURRIES   9   7  92 E9        29.86R WCI  -5
CROSBY         CLOUDY     9   7  92 E13       29.70F WCI  -7
HARVEY         CLOUDY     9   5  85 E15       29.82F WCI  -8
HAZEN          CLOUDY    14   9  79 E7        29.75F WCI   4
LINTON         CLOUDY    16  12  86 SE9       29.76S WCI   4
MANDAN         FAIR      10   9  92 E9        29.76S WCI  -2
OAKES            N/A      9   7  92 E9        29.85R WCI  -5
RUGBY          CLOUDY     9   5  85 E15       29.84S WCI  -8
STANLEY        CLOUDY     7   7 100 E13       29.70F WCI  -9
TIOGA          CLOUDY     9   9 100 E15       29.70F WCI  -8
$$

CITY           SKY/WX    TMP DP  RH WIND       PRES   REMARKS
GRAND FORKS    CLOUDY    13   8  81 E7        29.96S WCI   3
GRAND FORKS AF FLURRIES  12   9  85 SE8       29.95F WCI   1
DEVILS LAKE    CLOUDY    10   0  61 SE13      29.84F WCI  -5
FARGO          CLOUDY    14   7  73 E9        29.93F WCI   2
CANDO          CLOUDY     9   5  85 E12       29.88F WCI  -6
CAVALIER       LGT SNOW  10   7  85 E10       29.97F WCI  -3
GRAFTON        CLOUDY    10   7  85 SE12      29.96F FOG     WCI  -4
GWINNER        CLOUDY    12   5  73 E14       29.87R WCI  -3
LANGDON        CLOUDY     9   5  85 E12       29.89R WCI  -6
ROLLA          CLOUDY     7   3  85 E9        29.85F WCI  -7
WALHALLA         N/A      9   9 100 E5        29.98S FOG     WCI   0
$$

CITY           SKY/WX    TMP DP  RH WIND       PRES   REMARKS
ABERDEEN       CLOUDY    17  12  80 NE8       29.82F WCI   7
MOBRIDGE       CLOUDY    19  14  81 E6        29.72S WCI  11
BUFFALO          N/A     42  30  62 CALM      29.58F
RAPID CITY     MOCLDY    37  28  70 S7        29.71R
GLASGOW        CLOUDY    18  16  92 E20       29.55F FOG     WCI   2
SIDNEY         MOCLDY    19  16  86 CALM      29.64F
WOLF POINT     CLOUDY    18  15  88 E10       29.62F WCI   6
GLENDIVE       CLOUDY    21  19  93 NE5       29.60F WCI  15
MILES CITY     CLOUDY    37  31  78 SE12      29.59F
BAKER          CLOUDY    42  31  64 W5        29.62F
$$

CITY           SKY/WX    TMP DP  RH WIND       PRES   REMARKS
BILLINGS       CLOUDY    47  28  47 SW9       29.63F
GREAT FALLS    CLEAR     49  33  54 SW30G37   29.50F
REGINA         LGT SNOW  10   9  92 SE18      29.68F DRFTSNOWWCI  -8
ESTEVAN        LGT SNOW   9   3  78 E18G26    29.72  DRFTSNOWWCI -10
$$



USA.gov is the U.S. government's official web portal to all federal, state and local government web resources and services.